STARLINK-32339, 61640

Orbit data source: Space-Track

STARLINK-32339, 61640 is a payload satellite owned by SpaceX/Seattle (US) in LEO that was launched on Wed, 23 Oct 2024 UTC via an FALCON 9 launch vehicle from the Air Force Eastern Test Range (AFETR). Payload-class satellites include a variety of spacecraft equipped with specific instruments for various scientific and technological missions. These include communications satellites like Starlink; space stations such as the ISS; scientific satellites like the Hubble; Earth observation satellites from companies like Planet Labs, Umbra, and HawkEye 360; GPS; miniature CubeSats for education and research; and military/defense satellites.

Loading next visibility...
Identifier
61640, 2024-191V
Orbit
LEO
Country
Flag of USUS
Related business
Manufacturer
SpaceX/Seattle
Mission
Operational Commercial Communications
Bus & Motor
STARLINK V2M, Unknown motor
Mass
730 kg wet, ~700 kg dry
Launch date (UTC)
2024-10-23 (2 years ago)
Launch vehicle
FALCON 9
Launch site
Air Force Eastern Test Range (AFETR)
Object type
Payload
Rocket body
Debris
Shape & HBR
Box + 2 Pan, 17.7 m
Radar Cross Section
33.884 m², Large (>1 m²)

Expand to show TLE details & history
Last TLE update: 18 hours ago

TLE from 18 hours ago
0 STARLINK-32339
1 61640U 24191V   26149.78873945 -.00000239  00000-0  83249-6 0  9994
2 61640  43.0026  56.1337 0000788 264.0763  95.9999 15.27575004 89935
Epoch: 2026-05-29T18:55Z
TLE epoch observation values (Epoch: 2026-05-29T18:55:47.088Z)
Latitude
-0.00001°
Longitude
-115.1266°
Altitude
482.896 km
Speed
7.626 km/s
True Right ascension
03h 44m 32s
True Declination
0° 00' 00"
Sunlit
Object was in daylight at epoch
Visualization orbit readout
Latitude
Unknown
Longitude
Unknown
Altitude
Unknown
Speed
Unknown
Apparent Right ascension
Unknown
Apparent Declination
Unknown
Sunlit
N/A
Visualization observer readout
Local Sidereal Time
22:34:48
Azimuth
Unknown
Elevation
Unknown
Doppler factor
Unknown
Orbital elements
Apogee altitude
485.55 km
Perigee altitude
484.468 km
Semi-major axis
6,863.146 km
Eccentricity
0.00008
Inclination
43.0026°
RAAN
56.1337°
Arg. of periapsis
264.0763°
True anomaly
96.00888°
Mean anomaly
95.9999°
Eccentric anomaly
96.00439°
Mean motion
3.81732 °/min
Orbital period
94.31 mins
BSTAR
8.3249e-7
Loading maneuver chart data...
Computing Atmospheric mass density...
Loading historical data...
Loading historical data...
Loading historical data...
Loading historical data...
Loading historical data...
Loading historical data...
Loading historical data...

Documentation

Showing up to 5 results
|